Regional Weather Roundup
Issued by NWS Kansas City/Pleasant Hill, MO

Home | Current Version | Previous Version | Graphics & Text | Print | Product List | Glossary Off
Versions: 1 2 3 4 5 6 7 8 9 10 11 12 13 14 15 16 17 18 19 20 21 22 23 24 25 26 27 28 29 30 31 32 33 34 35 36 37 38 39 40 41 42 43 44 45 46 47 48 49 50

000
ASUS43 KEAX 010504
RWREAX

WEATHER ROUNDUP FOR EASTERN KANSAS AND NORTHWEST MISSOURI
NATIONAL WEATHER SERVICE KANSAS CITY/PLEASANT HILL MO
1200 AM CDT WED OCT 01 2014

KSZ040-057-103>105-MOZ028-029-037-043-010600-
...KANSAS CITY METROPOLITAN AREA...

CITY           SKY/WX    TMP DP  RH WIND       PRES   REMARKS
K.C. INTL      CLOUDY    72  59  63 SE12      29.79S
K.C. DOWNTOWN  MOCLDY    75  59  57 SE12G23   29.78S
LEES SUMMIT    PTCLDY    71  59  65 S9        29.82R
OLATHE - IXD   MOCLDY    69  62  78 S10       29.80S
OLATHE - OJC   CLOUDY    69  60  73 SE12      29.79S
LAWRENCE       CLOUDY    69  62  78 SE8       29.77S

$$

MOZ001>008-011>017-020>025-030>033-038>040-044>046-053-054-010600-
...NORTHERN AND CENTRAL MISSOURI...

CITY           SKY/WX    TMP DP  RH WIND       PRES   REMARKS
ST. JOSEPH     CLOUDY    72  59  63 SE12      29.76F
MOSBY          MOCLDY    70  61  73 SE3       29.80R
WHITEMAN AFB   CLEAR     69  58  68 S10       29.82S
CLINTON        CLEAR     70  57  64 SE7       29.83F HAZE
SEDALIA        CLEAR     66  56  70 S8        29.84S
WARSAW         NOT AVBL
MARSHALL       CLEAR     68  61  77 SE3       29.84F
CHILLICOTHE      N/A     70  62  76 SE7       29.83S
MOBERLY        PTCLDY    64  59  82 E6        29.87S
KIRKSVILLE     MOCLDY    63  32  31 E8        29.88S

$$

MOZ041-047>049-056>058-063>065-088>090-097-010600-
...EASTERN AND SOUTHERN MISSOURI...

CITY           SKY/WX    TMP DP  RH WIND       PRES   REMARKS
ST. LOUIS INTL CLEAR     69  60  73 SE9       29.91S
SPIRIT OF STL  CLEAR    N/A N/A N/A CALM      29.89S
COLUMBIA       CLEAR     67  57  70 SE8       29.86S
JEFFERSON CITY CLEAR     63  57  81 SE3       29.85F
MEXICO         CLEAR     68  64  88 E3        29.87F
ROLLA          CLEAR     64  52  64 S7        29.88F
LEBANON        CLEAR     64  54  68 SE5       29.90S
OSAGE BEACH    CLEAR     64  54  68 S3        29.87S
SPRINGFIELD    CLEAR     67  55  65 SE10      29.87S
BRANSON        CLEAR     63  57  82 CALM      29.90S
NEVADA         PTCLDY    66  59  77 SE7       29.83F
JOPLIN         PTCLDY    70  59  68 SE8       29.83F
WEST PLAINS    CLEAR     56  53  90 CALM      29.92S

$$

IAZ060-094-KSZ022-034>040-054-083-096-NEZ052-066-093-010600-
...KANSAS...SOUTHEAST NEBRASKA AND IOWA...

CITY           SKY/WX    TMP DP  RH WIND       PRES   REMARKS
TOPEKA         CLOUDY    75  63  66 S15       29.75F
MANHATTAN      CLOUDY    71  65  81 S6        29.72S
EMPORIA        MOCLDY    71  63  75 SE15      29.76S
CHANUTE        MOCLDY    71  62  73 S15       29.79F
WICHITA        CLOUDY    74  63  68 S18G28    29.70F
OMAHA          TSTM      66  63  90 SE21G30   29.76F FOG
LINCOLN        RAIN      64  62  93 E6        29.75F FOG
FALLS CITY     TSTM      66  65  96 CALM      29.76R FOG
LAMONI         CLOUDY    66  61  84 E7        29.82
DES MOINES     CLOUDY    65  56  72 E9        29.84S

$$




USA.gov is the U.S. government's official web portal to all federal, state and local government web resources and services.